Location: ????????
(55.4000°N, 39.1167°E)
Time: 03:41:33
(UTC+00:00)

Sich 1 - Pass Details

Date: 19 May 2025
Orbit: 574 x 603 km, 82.5° (Epoch: 15 June)

Event Time Altitude Azimuth Distance (km) Brightness Sun altitude
Rises 20:53:12 0° 345° (NNW) 2,843 8.3 -14.4°
Reaches altitude 10° 20:55:27 10° 341° (NNW) 1,932 6.9 -14.5°
Maximum altitude 20:59:36 53° 265° (W) 727 3.4 -14.5°
Enters shadow 21:01:58 23° 197° (SSW) 1,252 4.1 -14.5°
